This is the latest recevied weather packets stored in our database for station/object OE3UKW. If no packets are shown the sender has not sent any weather packets the latest 10 day(s).
| Time | Temp. | Humidity | Pressure | Rain* | Wind** | Luminosity | Snow |
|---|---|---|---|---|---|---|---|
| 1777679473 | 7.78° C | 60% | 1026.3 hPa | 0 mm | - | 0 W/m² | - |
| 1777678873 | 7.78° C | 60% | 1026.3 hPa | 0 mm | - | 0 W/m² | - |
| 1777678273 | 8.33° C | 60% | 1026.3 hPa | 0 mm | - | 0 W/m² | - |
| 1777677673 | 8.33° C | 61% | 1026.4 hPa | 0 mm | - | 0 W/m² | - |
| 1777677073 | 8.33° C | 61% | 1026.4 hPa | 0 mm | - | 0 W/m² | - |
| 1777676473 | 7.78° C | 62% | 1026.4 hPa | 0 mm | - | 0 W/m² | - |
| 1777675873 | 7.78° C | 62% | 1026.4 hPa | 0 mm | - | 0 W/m² | - |
| 1777675273 | 7.78° C | 62% | 1026.4 hPa | 0 mm | - | 0 W/m² | - |
| 1777674673 | 7.22° C | 61% | 1026.4 hPa | 0 mm | - | 0 W/m² | - |
| 1777674074 | 7.78° C | 60% | 1026.4 hPa | 0 mm | - | 0 W/m² | - |
| 1777673473 | 7.78° C | 60% | 1026.5 hPa | 0 mm | - | 0 W/m² | - |
| 1777672873 | 7.78° C | 60% | 1026.6 hPa | 0 mm | - | 0 W/m² | - |
| 1777672273 | 7.78° C | 59% | 1026.6 hPa | 0 mm | - | 0 W/m² | - |
| 1777671673 | 8.33° C | 59% | 1026.5 hPa | 0 mm | - | 0 W/m² | - |
| 1777671073 | 8.33° C | 59% | 1026.3 hPa | 0 mm | - | 0 W/m² | - |
| 1777670473 | 8.89° C | 58% | 1026.4 hPa | 0 mm | - | 0 W/m² | - |
| 1777669873 | 8.89° C | 57% | 1026.3 hPa | 0 mm | - | 0 W/m² | - |
| 1777669273 | 8.89° C | 56% | 1026.3 hPa | 0 mm | - | 0 W/m² | - |
| 1777668673 | 8.89° C | 56% | 1026.4 hPa | 0 mm | - | 0 W/m² | - |
| 1777668072 | 8.89° C | 56% | 1026.5 hPa | 0 mm | - | 0 W/m² | - |
| 1777667473 | 9.44° C | 53% | 1026.4 hPa | 0 mm | - | 0 W/m² | - |
| 1777666873 | 9.44° C | 52% | 1026.3 hPa | 0 mm | - | 0 W/m² | - |
| 1777666272 | 10° C | 51% | 1026.4 hPa | 0 mm | - | 0 W/m² | - |
| 1777665673 | 10.56° C | 49% | 1026.3 hPa | 0 mm | - | 0 W/m² | - |
| 1777665072 | 10.56° C | 47% | 1026.2 hPa | 0 mm | - | 0 W/m² | - |
* Rain latest hour (hover to see other rain measurements)
** Current wind speed in m/s (hover to see current wind gust speed)